{"data":{"norad_id":59328,"intl_designator":"2024-057J","name":"STARLINK-31614","alt_names":[],"object_type":"PAYLOAD","status":"ACTIVE","operator":null,"country":"US","launch_date":"2024-03-25","launch_site_code":"AFETR","launch_vehicle":null,"mission":null,"orbit_class":"UNKNOWN","rcs_meters":null,"size_class":null,"mass_kg":null,"dimensions":null,"purposes":["comms"],"wikipedia_slug":null,"has_3d_model":false,"image_url":null,"decayed_at":null,"tle_current":{"epoch":"2026-05-24T23:13:47.212320Z","epoch_age_seconds":75065,"freshness":"FRESH","line1":"1 59328U 24057J   26144.96790755  .00000647  00000+0  33051-4 0  9992","line2":"2 59328  43.0027 116.4029 0001088 269.9529  90.1198 15.27575200121508","mean_motion":15.275752,"eccentricity":0.0001088,"inclination_deg":43.0027,"raan_deg":116.4029,"arg_perigee_deg":269.9529,"mean_anomaly_deg":90.1198,"bstar":3.3051e-5,"rev_number":12150,"period_min":94.267044921913,"perigee_km":482.31697039305,"apogee_km":483.80996761511,"semimajor_km":6861.2004690041,"source":"CELESTRAK","updated_at":"2026-05-25T13:38:18.904299Z"}}}